Hourly Data Report for October 18, 2014

All times are specified in Local Standard Time (LST). Add 1 hour to adjust for Daylight Saving Time where and when it is observed.

TORONTO INTL A
ONTARIO

43°40'36.000" N
79°37'50.000" W
173.40 m
6158731
71624
YYZ

Download Data

Hourly Data (October 2014)
Hourly Data Report for October 18, 2014
Temp Definition
°C
Dew Point Temp Definition
°C
Rel Hum Definition
%
Wind Dir Definition
10's deg

Wind Spd Definition
km/h
Visibility Definition
km
Stn Press Definition
kPa
Hmdx Definition


Wind Chill Definition


Weather Definition


TIME
00:00 Legend Double Dagger 12.8 9.7 81 25 20 24.1 97.82     LegendNANA
01:00 Legend Double Dagger 12.6 9.5 81 25 19 24.1 97.84     Mostly Cloudy
02:00 Legend Double Dagger 12.1 8.6 79 26 23 24.1 97.84     LegendNANA
03:00 Legend Double Dagger 11.7 8.4 80 28 19 24.1 97.85     LegendNANA
04:00 Legend Double Dagger 10.8 7.3 79 29 18 24.1 97.89     Mostly Cloudy
05:00 Legend Double Dagger 10.2 7.3 82 28 21 24.1 97.97     LegendNANA
06:00 Legend Double Dagger 10.0 6.9 81 28 21 24.1 98.02     LegendNANA
07:00 Legend Double Dagger 9.1 8.0 93 33 23 12.9 98.12     Rain
08:00 Legend Double Dagger 9.7 7.2 84 31 25 24.1 98.21     LegendNANA
09:00 Legend Double Dagger 10.4 6.9 79 33 30 24.1 98.29     LegendNANA
10:00 Legend Double Dagger 10.0 5.6 74 33 42 24.1 98.37     Mostly Cloudy
11:00 Legend Double Dagger 11.1 5.2 67 32 39 24.1 98.45     LegendNANA
12:00 Legend Double Dagger 10.0 4.8 70 32 41 24.1 98.56     LegendNANA
13:00 Legend Double Dagger 8.3 4.5 77 34 41 19.3 98.65     Rain
14:00 Legend Double Dagger 8.8 4.5 74 32 43 24.1 98.75     LegendNANA
15:00 Legend Double Dagger 7.7 3.0 72 33 33 24.1 98.83     LegendNANA
16:00 Legend Double Dagger 8.0 2.3 67 33 39 24.1 98.93     Cloudy
17:00 Legend Double Dagger 7.6 2.7 71 33 35 24.1 99.02     LegendNANA
18:00 Legend Double Dagger 7.2 2.5 72 33 30 24.1 99.14     LegendNANA
19:00 Legend Double Dagger 6.3 2.6 77 34 30 24.1 99.22     Cloudy
20:00 Legend Double Dagger 5.7 2.7 81 34 27 24.1 99.30     LegendNANA
21:00 Legend Double Dagger 4.4 0.9 78 33 23 24.1 99.38     LegendNANA
22:00 Legend Double Dagger 4.0 0.0 75 33 21 24.1 99.44     Mainly Clear
23:00 Legend Double Dagger 3.6 -0.4 75 32 23 24.1 99.49     LegendNANA

Notes on Data Quality.

Legend

  • E = Estimated
  • M = Missing
  • NA = Not Available
  • ‡ = Partner data that is not subject to review by the National Climate Archives
Date modified: